Accueil
METAR-TAF:

METAR-TAF

Aéroports :

Alpnach, Suisse

latitude: 46-56-19N, longitude: 8-17-03E, altitude: 440 m

Observation

Le bulletin a été fait il y a 20 minutes, à 22:20 UTC
Vent 4 kt de sud-ouest
Température -1°C
Humidité 93%
Pression 1008 hPa
Visibilité: 6000 m

METAR: LSMA 202220Z AUTO 22004KT 6000NDV NCD M01/M02 Q1008 RMK

Heure: 23:40 (22:40 UTC)


TAF: absent

Observations et prévisions météorologiques de plus de 4000 aéroports (messages METAR et TAF).

Les stations disponibles sont représentées par des disques jaunes et rouges sur la carte.

Passer la souris dessus pour voir le nom de la station.

Cliquer dessus pour voir les observations et prévisions météorologiques.

Pour changer de carte: cliquez sur les boutons verts avec une croix noire pour zoomer, sur le bouton vert avec un tiret pour effectuer un zoom arrière, ou sur les flèches vertes pour les cartes adjacentes.


METAR-TAF: